Weather Roundup
Issued by NWS Chicago, IL

Home | Current Version | Previous Version | Graphics & Text | Print | Product List | Glossary On
Versions: 1 2 3 4 5 6 7 8 9 10 11 12 13 14 15 16 17 18 19 20 21 22 23 24 25 26 27 28 29 30 31 32 33 34 35 36 37 38 39 40 41 42 43 44 45 46 47 48 49 50
000
NZUS59 KLOT 192358
HRRLOT

CHICAGO AREA WEATHER ROUNDUP
NATIONAL WEATHER SERVICE CHICAGO/ROMEOVILLE IL
700 PM CDT SAT APR 19 2014

NOTE: "FAIR" INDICATES FEW OR NO CLOUDS BELOW 12,000 FEET WITH NO
SIGNIFICANT WEATHER AND/OR OBSTRUCTIONS TO VISIBILITY.

* THESE STATIONS ARE NOT UNDER NWS QUALITY CONTROL. THEY ALSO MAY NOT
  REPORT WEATHER SUCH AS PRECIPITATION OR FOG.

ILZ005-006-012>014-019>023-200100-
NORTHEAST ILLINOIS

CITY           SKY/WX    TMP DP  RH WIND       PRES   REMARKS
OHARE          CLOUDY    60  35  39 E10       30.22S
6HR MIN TEMP:  58; 6HR MAX TEMP:  66;

MIDWAY         CLOUDY    59  37  44 E9        30.23S
6HR MIN TEMP:  57; 6HR MAX TEMP:  64;

AURORA         MOCLDY    66  34  30 SE12      30.20F
6HR MIN TEMP:  63; 6HR MAX TEMP:  69;

WAUKEGAN       MOCLDY    48  34  58 E3        30.23F
6HR MIN TEMP:  45; 6HR MAX TEMP:  52;

DUPAGE AIRPORT MOCLDY    66  35  31 SE12      30.20F
6HR MIN TEMP:  62; 6HR MAX TEMP:  69;

WHEELING       MOCLDY    55  36  48 E5        30.23F
6HR MIN TEMP:  54; 6HR MAX TEMP:  63;

NORTHERLY IS     N/A     48  37  65 CALM        N/A
$$

WIZ051-052-058>065-066-070>072-200100-
SOUTHEAST WISCONSIN

CITY           SKY/WX    TMP DP  RH WIND       PRES   REMARKS
MILWAUKEE      MOCLDY    46  34  62 SE7       30.24F
6HR MIN TEMP:  45; 6HR MAX TEMP:  53;

WAUKESHA       PTCLDY    54  36  50 SE8       30.22F
$$

INZ001>003-010>013-019-020-200100-
NORTHWEST INDIANA

CITY           SKY/WX    TMP DP  RH WIND       PRES   REMARKS
GARY*          MOCLDY    55  39  54 CALM      30.23F
MICHIGAN CITY* NOT AVBL
RENSSELAER*    NOT AVBL
$$

LMZ740>746-200100-
SOUTHERN LAKE MICHIGAN

STATION/POSITION TIME  SKY/WX   TEMP WIND        PRES    VSBY
                                AIR  DIR/SP/G
                 (UTC)          (F)  (DEG/KT/KT) (MB)    (MI)
HARRISON CRIB    2300            44   70/  5/  6   N/A
BURNHAM HARBOR   2300            48   50/  2/  7   N/A
CALUMET HARBOR   2300            45   40/  4/  4 1024.4F
BURNS HARBOR     NOT AVBL
MICHIGAN CITY    2300            64  110/ 10/ 12   N/A
$$

ABBREVIATIONS USED IN REMARKS
   TC - TEMPERATURE IN CELSIUS
  WCI - WIND CHILL INDEX
   HX - HEAT INDEX
  VSB - VISIBILITY
$$


USA.gov is the U.S. government's official web portal to all federal, state and local government web resources and services.